Skip Page Navigation
NASA JPL Caltech
NASA Logo - Jet Propulsion Laboratory + View the NASA Portal
+ Near-Earth Object (NEO) Program
Search JPL
JPL Home Earth Solar System Stars & Galaxies Technology
JPL Solar System Dynamics
BODIES ORBITS EPHEMERIDES TOOLS PHYSICAL DATA DISCOVERY FAQ SITE MAP
JPL Small-Body Database Browser
Search: [ help ]  
5700 Homerus (5166 T-3)
Classification: Main-belt Asteroid          SPK-ID: 2005700
Ephemeris | Orbit Diagram | Orbital Elements | Physical Parameters | Discovery Circumstances ]

[ hide orbit diagram ]
Orbit Diagram
Note: Make sure you have Java enabled on your browser to see the applet. This applet is provided as a 3D orbit visualization tool. The applet was implemented using 2-body methods, and hence should not be used for determining accurate long-term trajectories (over several years or decades) or planetary encounter circumstances. For accurate long-term ephemerides, please instead use our Horizons system.
Orbit Viewer

Additional Notes: the orbits shown in the applet are color coded. The planets are white lines, and the asteroid/comet is a blue line. The bright white line indicates the portion of the orbit that is above the ecliptic plane, and the darker portion is below the ecliptic plane. Likewise for the asteroid/comet orbit, the light blue indicates the portion above the ecliptic plane, and the dark blue the portion below the ecliptic plane.

Orbit Viewer applet originally written and kindly provided by Osamu Ajiki (AstroArts), and further modified by Ron Baalke (JPL).


Orbital Elements at Epoch 2456400.5 (2013-Apr-18.0) TDB
Reference: JPL 1 (heliocentric ecliptic J2000)
 Element Value Uncertainty (1-sigma)   Units 
e .1656169830207757 6.5766e-08  
a 2.594933101058392 1.9335e-08 AU
q 2.165168109720355 1.7223e-07 AU
i 12.93222829810774 9.8536e-06 deg
node 163.706748207726 2.4501e-05 deg
peri 124.2214003608649 3.7101e-05 deg
M 250.7418950662863 2.7392e-05 deg
tp 2456863.881657309973
(2014-Jul-25.38165731)
0.00011765 JED
period 1526.819422072143
4.18
1.7065e-05
4.672e-08
d
yr
n .2357842681300328 2.6353e-09 deg/d
Q 3.024698092396429 2.2537e-08 AU
  Orbit Determination Parameters
   # obs. used (total)      965  
   data-arc span      12956 days (35.47 yr)  
   first obs. used      1977-10-11  
   last obs. used      2013-04-01  
   planetary ephem.      DE405  
   SB-pert. ephem.      SB405-CPV-2  
   condition code      0  
   fit RMS      .53331  
   data source      ORB  
   producer      Otto Matic  
   solution date      2013-Apr-29 13:18:06  

Additional Information
 Earth MOID = 1.17843 AU 
 T_jup = 3.363 
[ show covariance matrix ]

Ephemeris | Orbit Diagram | Orbital Elements | Physical Parameters | Discovery Circumstances ]

Physical Parameter Table
Parameter Symbol Value Units Sigma Reference Notes
absolute magnitude H 13.5 mag n/a PDS3 (MPC 28114)  

5700 Homerus (5166 T-3)          Discovered 1977-Oct-16 by van Houten and Gehrels at Palomar (675)
Reference: DISCOVERY.DBLast Updated: 2003-08-29

Alternate Designations
 5166 T-3 = 1985 QA 
Ephemeris | Orbit Diagram | Orbital Elements | Physical Parameters | Discovery Circumstances ]
ABOUT SSD CREDITS/AWARDS PRIVACY/COPYRIGHT GLOSSARY LINKS
FirstGov 2013-Jun-20 06:30 UT
(server date/time)  
NASA Home Page
Site Manager:   Donald K. Yeomans
Webmaster  Alan B. Chamberlin